Port Hope, MI

10:28 PM EDT on September 28, 2016 (GMT -0400)
Port Hope

Weather History for KP58 - May, 2014

Change the Weather History Date:

Monday, May 26, 2014

  Actual Average Record
Temperature  
Mean Temperature 72 °F -  
Max Temperature 84 °F 58 °F 84 °F (2014)
Min Temperature 62 °F 44 °F 42 °F (2002)
Cooling Degree Days 7    
Growing Degree Days 22 (Base 50)    
Moisture  
Dew Point 53 °F    
Average Humidity 51    
Maximum Humidity 65    
Minimum Humidity 35    
Precipitation  
Precipitation 0.00 in - - ()
Sea Level Pressure  
Sea Level Pressure 29.94 in    
Wind  
Wind Speed 8 mph (SW)    
Max Wind Speed 14 mph    
Max Gust Speed 25 mph    
Averages and records for this station are not official NWS values.
T = Trace of Precipitation, MM = Missing Value Source: NWS Daily Summary

Daily Weather History Graph

Daily Weather History Graph

Search for Another Location

Airport or City:

Trip Planner

Search our weather history database for the weather conditions in past years. The results will help you decide how hot, cold, wet, or windy it might be!

Date:

Astronomy

May. 26, 2014 Rise Set
Actual Time 5:55 AM EDT 9:01 PM EDT
Civil Twilight 5:20 AM EDT 9:36 PM EDT
Nautical Twilight 4:35 AM EDT 10:21 PM EDT
Astronomical Twilight 3:42 AM EDT 11:15 PM EDT
Moon 4:41 AM EDT (5/26) 6:59 PM EDT (5/26)
Length of Visible Light 16h 16m
Length of Day
15h 06m
Waning Crescent, 5% of the Moon is Illuminated
May 26
Waning Crescent
May 28
New
Jun 5
First Quarter
Jun 13
Full
Jun 19
Last Quarter

Hourly Weather History & Observations

Time (EDT) Temp. Heat Index Dew Point Humidity Pressure Visibility Wind Dir Wind Speed Gust Speed Precip Events Conditions
12:51 AM 66.0 °F - 51.1 °F 59% 29.99 in - SW 6.9 mph - N/A   Unknown
1:51 AM 66.0 °F - 50.0 °F 56% 30.00 in - SW 5.8 mph - N/A   Unknown
2:51 AM 64.0 °F - 50.0 °F 60% 30.00 in - SW 6.9 mph - N/A   Unknown
3:51 AM 62.1 °F - 50.0 °F 65% 30.00 in - SW 4.6 mph - N/A   Unknown
4:51 AM 62.1 °F - 50.0 °F 65% 30.00 in - SW 5.8 mph - N/A   Unknown
5:51 AM 62.1 °F - 48.9 °F 62% 30.00 in - SW 6.9 mph - N/A   Unknown
6:51 AM 63.0 °F - 50.0 °F 63% 30.01 in - SW 8.1 mph - N/A   Unknown
7:51 AM 66.0 °F - 50.0 °F 56% 30.00 in - SW 6.9 mph - N/A   Unknown
8:51 AM 71.1 °F - 51.1 °F 49% 29.99 in - WSW 8.1 mph - N/A   Unknown
9:51 AM 75.0 °F - 52.0 °F 44% 29.98 in - WSW 8.1 mph 17.3 mph N/A   Unknown
10:51 AM 78.1 °F - 53.1 °F 42% 29.97 in - WSW 12.7 mph 21.9 mph N/A   Unknown
11:51 AM 81.0 °F 80.7 °F 55.0 °F 41% 29.96 in - SW 12.7 mph 20.7 mph N/A   Unknown
12:51 PM 82.0 °F 81.6 °F 55.9 °F 41% 29.95 in - SW 13.8 mph 23.0 mph N/A   Unknown
1:51 PM 81.0 °F 81.0 °F 57.0 °F 44% 29.94 in - West 11.5 mph 25.3 mph N/A   Unknown
3:51 PM 82.0 °F 81.3 °F 54.0 °F 38% 29.91 in - West 12.7 mph 24.2 mph N/A   Unknown
4:51 PM 82.0 °F - 52.0 °F 35% 29.88 in - WSW 11.5 mph 20.7 mph N/A   Unknown
5:51 PM 82.0 °F 81.3 °F 54.0 °F 38% 29.87 in - West 9.2 mph - N/A   Unknown
7:51 PM 80.1 °F 80.1 °F 55.0 °F 42% 29.86 in - Variable 5.8 mph - N/A   Unknown
8:51 PM 78.1 °F - 55.0 °F 45% 29.85 in - Variable 3.5 mph - N/A   Unknown
9:51 PM 75.9 °F - 55.9 °F 50% 29.85 in - WSW 5.8 mph - N/A   Unknown
10:51 PM 73.0 °F - 57.9 °F 59% 29.85 in - SW 5.8 mph - N/A   Unknown
11:51 PM 73.9 °F - 60.1 °F 62% 29.86 in - WSW 6.9 mph - N/A   Unknown